Regional Weather Roundup
Issued by NWS Spokane, WA

Home | Current Version | Previous Version | Text Only | Print | Product List | Glossary On
Versions: 1 2 3 4 5 6 7 8 9 10 11 12 13 14 15 16 17 18 19 20 21 22 23 24 25 26 27 28 29 30 31 32 33 34 35 36 37 38 39 40 41 42 43 44 45 46 47 48 49 50
650
NZUS01 KOTX 261225
RWROTX

Eastern Washington/Northern Idaho Roundup
National Weather Service, Spokane WA
500 AM PDT THU APR 26 2018

Note: "fair" indicated few or no clouds below 12,000 feet with no
significant weather and/or obstructions to visibility.

...Northeast Washington and Northern Idaho Panhandle...

CITY           SKY/WX    TMP DP  RH WIND       PRES   REMARKS
Spokane Intl   CLEAR     45  34  65 NE6       30.15R
Spokane Downto CLEAR     39  34  82 CALM      30.17R
Coeur d Alene  CLEAR     41  32  70 E7        30.17S
Deer Park      CLEAR     38  28  67 N3        30.16R
Sandpoint      CLEAR     34  32  93 W3        30.20R
Bonners Ferry  FAIR      37  28  70 CALM      30.21R

...Southeast Washington and southern Idaho Panhandle...

CITY           SKY/WX    TMP DP  RH WIND       PRES   REMARKS
Walla Walla    CLEAR     50  40  68 E5        30.09S
Pullman/Moscow CLEAR     47  35  63 CALM      30.16S
Lewiston       CLEAR     48  40  73 CALM      30.14S
Lowell           N/A     40  37  89 NW3       30.24S
Grangeville    FAIR      37  32  81 S3        30.17R

...Columbia Basin...

CITY           SKY/WX    TMP DP  RH WIND       PRES   REMARKS
Ephrata        CLEAR     52  29  41 N9        30.12R
Moses Lake     CLEAR     39  31  72 N7        30.13R
Pasco          CLEAR     39  36  89 N5        30.11S
Richland       SUNNY     42  41  97 CALM      30.11S
Hermiston      CLEAR     44  42  93 SE3       30.09S
Pendleton      CLEAR     46  37  71 SE9       30.10R

...East Slopes Cascades...

CITY           SKY/WX    TMP DP  RH WIND       PRES   REMARKS
The Dalles     CLEAR     48  41  76 SE5       30.10R
Yakima         CLEAR     40  34  79 W7        30.13R
Ellensburg     CLEAR     41  33  73 NE3       30.14S
Wenatchee      CLEAR     47  35  63 W10       30.14S
Winthrop       FAIR      36  32  85 CALM      30.21R
Omak           CLEAR     47  32  56 N13       30.17R
Sunnyside      SUNNY     37  35  92 N3        30.11S

...Southern British Columbia...

CITY           SKY/WX    TMP DP  RH WIND       PRES   REMARKS
Penticton      PTCLDY    41  32  70 N9        30.20R
Cranbrook      PTCLDY    41  25  52 W5        30.23R
Osoyoos          N/A     39  32  75 CALM        N/A
Creston          N/A     43  28  56 N2          N/A

...Western Montana...

CITY           SKY/WX    TMP DP  RH WIND       PRES   REMARKS
Kalispell      SUNNY     35  30  82 VRB5      30.20S
Libby            N/A     32  30  93 S3        30.22R
Missoula       CLEAR     36  28  73 CALM      30.23R

...Neighboring Cities...

CITY           SKY/WX    TMP DP  RH WIND       PRES   REMARKS
Seattle        PTCLDY    56  40  55 NE12      30.03F
Portland       CLEAR     54  48  80 CALM      29.98S
Boise          CLEAR     48  33  56 SE6       30.12S
Great Falls    CLEAR     39  28  64 S9        30.20S
Calgary        CLEAR     37  23  56 VRB2      30.13S



USA.gov is the U.S. government's official web portal to all federal, state and local government web resources and services.